QPF
0.00 0.00 0.00 0.01 0.04 0.03 0.02 0.01 0.00 0.00 0.00 0.00 0.00 0.00 0.00 0.02 0.05 0.07 0.05 0.05 0.06 0.05 0.03 0.02 0.03 0.02 0.03 0.05 0.04 0.04 0.05 0.06 0.06 0.06 0.07 0.07 0.06 0.07 0.09 0.13 0.12 0.11 0.12 0.16 0.20 0.18 0.16 0.13 0.12
0.00 0.00 0.01 0.04 0.04 0.03 0.02 0.01 0.00 0.00 0.00 0.00 0.00 0.00 0.00 0.00 0.00 0.02 0.02 0.03 0.04 0.04 0.03 0.02 0.02 0.03 0.03 0.04 0.04 0.04 0.04 0.04 0.04 0.05 0.07 0.07 0.07 0.07 0.09 0.11 0.11 0.10 0.13 0.18 0.18 0.16 0.15 0.13 0.09
0.00 0.01 0.01 0.02 0.02 0.02 0.02 0.01 0.00 0.00 0.00 0.00 0.00 0.00 0.00 0.01 0.01 0.01 0.01 0.01 0.02 0.02 0.01 0.01 0.02 0.03 0.02 0.04 0.04 0.03 0.03 0.03 0.04 0.05 0.07 0.06 0.06 0.08 0.07 0.08 0.11 0.10 0.11 0.12 0.13 0.15 0.14 0.11 0.07
0.01 0.02 0.01 0.01 0.01 0.00 0.00 0.00 0.00 0.00 0.00 0.00 0.00 0.00 0.01 0.00 0.00 0.01 0.00 0.00 0.01 0.01 0.01 0.01 0.02 0.02 0.02 0.03 0.03 0.02 0.02 0.03 0.04 0.05 0.05 0.06 0.07 0.09 0.08 0.07 0.07 0.07 0.08 0.07 0.10 0.17 0.14 0.09 0.07
0.02 0.00 0.00 0.01 0.00 0.00 0.00 0.00 0.00 0.00 0.00 0.00 0.00 0.01 0.02 0.01 0.00 0.00 0.00 0.00 0.00 0.01 0.01 0.01 0.01 0.01 0.01 0.02 0.02 0.03 0.04 0.04 0.04 0.04 0.04 0.06 0.07 0.09 0.08 0.06 0.06 0.06 0.06 0.06 0.08 0.13 0.11 0.08 0.09
0.01 0.00 0.00 0.01 0.00 0.00 0.00 0.00 0.00 0.00 0.00 0.00 0.00 0.01 0.02 0.01 0.00 0.00 0.00 0.00 0.00 0.00 0.01 0.00 0.01 0.01 0.01 0.02 0.02 0.02 0.03 0.03 0.03 0.03 0.03 0.04 0.05 0.07 0.06 0.07 0.06 0.04 0.03 0.05 0.07 0.07 0.07 0.07 0.06
0.00 0.00 0.00 0.01 0.00 0.00 0.00 0.00 0.00 0.00 0.00 0.00 0.00 0.00 0.02 0.02 0.00 0.00 0.00 0.00 0.00 0.00 0.00 0.01 0.01 0.01 0.01 0.01 0.01 0.01 0.01 0.02 0.02 0.02 0.02 0.03 0.04 0.04 0.04 0.05 0.05 0.05 0.03 0.04 0.03 0.03 0.02 0.03 0.03
0.00 0.00 0.00 0.00 0.00 0.00 0.00 0.00 0.00 0.00 0.00 0.00 0.00 0.01 0.02 0.00 0.00 0.00 0.00 0.00 0.00 0.00 0.01 0.01 0.01 0.02 0.01 0.01 0.01 0.01 0.01 0.01 0.02 0.02 0.02 0.04 0.05 0.03 0.04 0.04 0.04 0.04 0.03 0.02 0.02 0.03 0.02 0.02 0.02
0.01 0.01 0.00 0.00 0.00 0.00 0.00 0.00 0.00 0.00 0.00 0.00 0.00 0.00 0.00 0.00 0.00 0.00 0.00 0.01 0.01 0.01 0.01 0.01 0.01 0.01 0.01 0.01 0.01 0.01 0.02 0.02 0.04 0.03 0.03 0.08 0.12 0.07 0.07 0.03 0.01 0.02 0.02 0.01 0.01 0.02 0.03 0.04 0.03
0.02 0.01 0.00 0.00 0.00 0.00 0.00 0.00 0.00 0.01 0.01 0.00 0.00 0.00 0.01 0.01 0.01 0.01 0.01 0.01 0.01 0.02 0.02 0.01 0.01 0.02 0.02 0.02 0.05 0.06 0.05 0.06 0.08 0.06 0.05 0.08 0.09 0.09 0.05 0.03 0.01 0.01 0.02 0.02 0.02 0.03 0.06 0.06 0.05
0.01 0.00 0.00 0.00 0.00 0.00 0.00 0.00 0.00 0.00 0.00 0.00 0.00 0.00 0.00 0.00 0.00 0.02 0.02 0.01 0.01 0.02 0.01 0.02 0.01 0.02 0.03 0.05 0.05 0.06 0.06 0.07 0.06 0.06 0.05 0.06 0.04 0.04 0.04 0.05 0.04 0.04 0.04 0.05 0.04 0.06 0.09 0.08 0.10
0.00 0.00 0.00 0.00 0.00 0.00 0.00 0.00 0.00 0.00 0.00 0.00 0.00 0.00 0.00 0.00 0.02 0.02 0.01 0.01 0.00 0.02 0.03 0.01 0.02 0.02 0.03 0.04 0.04 0.03 0.04 0.05 0.06 0.07 0.07 0.07 0.06 0.06 0.05 0.08 0.09 0.07 0.07 0.09 0.07 0.06 0.07 0.07 0.07
0.00 0.00 0.00 0.00 0.00 0.00 0.00 0.00 0.00 0.00 0.00 0.00 0.00 0.00 0.00 0.00 0.01 0.01 0.01 0.02 0.03 0.04 0.02 0.03 0.03 0.03 0.03 0.05 0.06 0.03 0.04 0.04 0.04 0.06 0.05 0.07 0.08 0.07 0.05 0.05 0.07 0.06 0.05 0.06 0.09 0.07 0.05 0.04 0.04
0.00 0.00 0.00 0.00 0.00 0.00 0.00 0.00 0.00 0.00 0.00 0.00 0.00 0.00 0.00 0.00 0.01 0.01 0.02 0.02 0.03 0.04 0.03 0.03 0.02 0.03 0.03 0.05 0.05 0.04 0.03 0.04 0.03 0.04 0.04 0.04 0.07 0.07 0.07 0.06 0.06 0.06 0.05 0.06 0.08 0.05 0.06 0.04 0.04
0.00 0.00 0.00 0.00 0.00 0.00 0.00 0.01 0.00 0.00 0.00 0.00 0.00 0.00 0.00 0.00 0.00 0.00 0.00 0.01 0.01 0.02 0.02 0.03 0.03 0.02 0.03 0.05 0.05 0.05 0.04 0.04 0.04 0.03 0.03 0.04 0.05 0.06 0.07 0.07 0.06 0.06 0.06 0.06 0.06 0.05 0.05 0.03 0.03
0.00 0.01 0.02 0.01 0.00 0.00 0.01 0.01 0.00 0.00 0.00 0.00 0.00 0.00 0.00 0.00 0.00 0.00 0.00 0.00 0.01 0.01 0.02 0.02 0.02 0.03 0.04 0.06 0.06 0.06 0.05 0.05 0.04 0.04 0.05 0.04 0.04 0.04 0.05 0.07 0.06 0.06 0.06 0.07 0.06 0.05 0.05 0.05 0.04
0.01 0.01 0.02 0.02 0.00 0.00 0.00 0.01 0.00 0.00 0.00 0.00 0.00 0.00 0.00 0.00 0.00 0.00 0.01 0.00 0.01 0.01 0.01 0.02 0.03 0.05 0.05 0.05 0.06 0.05 0.06 0.06 0.04 0.05 0.08 0.07 0.05 0.02 0.04 0.06 0.07 0.06 0.06 0.07 0.06 0.06 0.07 0.06 0.06
0.01 0.01 0.01 0.01 0.00 0.00 0.00 0.00 0.00 0.00 0.00 0.00 0.00 0.00 0.00 0.00 0.00 0.00 0.00 0.00 0.00 0.00 0.01 0.01 0.02 0.03 0.05 0.06 0.07 0.07 0.06 0.05 0.05 0.05 0.07 0.06 0.05 0.03 0.04 0.06 0.07 0.08 0.09 0.09 0.09 0.09 0.08 0.07 0.08
0.01 0.00 0.00 0.00 0.00 0.00 0.00 0.00 0.00 0.00 0.00 0.00 0.00 0.00 0.00 0.00 0.00 0.00 0.00 0.00 0.00 0.00 0.00 0.01 0.02 0.03 0.04 0.07 0.08 0.09 0.08 0.06 0.04 0.05 0.04 0.05 0.03 0.03 0.06 0.07 0.08 0.08 0.09 0.10 0.09 0.09 0.08 0.07 0.08
0.00 0.00 0.00 0.00 0.00 0.00 0.00 0.00 0.00 0.00 0.00 0.00 0.00 0.00 0.00 0.00 0.00 0.00 0.00 0.00 0.00 0.00 0.00 0.00 0.01 0.02 0.03 0.04 0.05 0.06 0.07 0.06 0.06 0.06 0.07 0.05 0.04 0.04 0.05 0.07 0.08 0.07 0.09 0.11 0.10 0.10 0.09 0.09 0.08
0.00 0.00 0.00 0.00 0.00 0.00 0.01 0.03 0.01 0.00 0.00 0.00 0.00 0.00 0.00 0.00 0.00 0.00 0.00 0.00 0.00 0.00 0.00 0.00 0.01 0.01 0.02 0.03 0.03 0.04 0.05 0.07 0.08 0.09 0.09 0.06 0.05 0.04 0.04 0.06 0.07 0.08 0.08 0.09 0.09 0.10 0.11 0.10 0.09
0.00 0.00 0.00 0.00 0.00 0.00 0.01 0.03 0.02 0.00 0.00 0.00 0.00 0.00 0.00 0.00 0.00 0.00 0.00 0.00 0.00 0.00 0.00 0.00 0.01 0.01 0.02 0.02 0.03 0.04 0.06 0.08 0.09 0.08 0.07 0.06 0.06 0.04 0.04 0.05 0.05 0.06 0.06 0.08 0.06 0.09 0.12 0.11 0.11
0.00 0.00 0.00 0.00 0.00 0.01 0.00 0.01 0.02 0.01 0.00 0.00 0.00 0.00 0.00 0.00 0.00 0.00 0.00 0.00 0.00 0.00 0.00 0.00 0.01 0.02 0.02 0.02 0.03 0.04 0.05 0.06 0.05 0.05 0.07 0.06 0.06 0.05 0.04 0.06 0.07 0.07 0.07 0.07 0.08 0.11 0.12 0.12 0.13
0.00 0.00 0.00 0.00 0.00 0.00 0.01 0.02 0.03 0.02 0.01 0.00 0.01 0.00 0.00 0.00 0.00 0.00 0.00 0.00 0.00 0.00 0.00 0.00 0.01 0.02 0.02 0.03 0.04 0.04 0.05 0.04 0.03 0.03 0.05 0.06 0.05 0.04 0.03 0.04 0.06 0.08 0.08 0.07 0.08 0.10 0.09 0.11 0.12
0.00 0.00 0.01 0.03 0.03 0.01 0.01 0.01 0.02 0.02 0.01 0.00 0.00 0.00 0.00 0.00 0.00 0.00 0.00 0.00 0.00 0.00 0.00 0.00 0.00 0.01 0.01 0.02 0.03 0.04 0.04 0.04 0.03 0.03 0.03 0.03 0.03 0.02 0.02 0.02 0.03 0.06 0.06 0.06 0.08 0.08 0.08 0.09 0.10
0.00 0.00 0.00 0.01 0.02 0.02 0.02 0.01 0.01 0.01 0.00 0.00 0.00 0.00 0.00 0.00 0.00 0.00 0.00 0.00 0.00 0.00 0.00 0.00 0.00 0.01 0.01 0.01 0.03 0.04 0.04 0.04 0.03 0.02 0.01 0.01 0.01 0.01 0.02 0.02 0.02 0.02 0.03 0.05 0.06 0.07 0.08 0.09 0.08
0.00 0.00 0.00 0.01 0.01 0.03 0.03 0.02 0.01 0.01 0.01 0.00 0.00 0.00 0.00 0.00 0.00 0.00 0.00 0.00 0.00 0.00 0.00 0.00 0.00 0.02 0.02 0.02 0.03 0.05 0.03 0.02 0.02 0.01 0.01 0.01 0.01 0.01 0.01 0.02 0.02 0.01 0.02 0.04 0.05 0.07 0.07 0.07 0.07
0.00 0.00 0.00 0.00 0.01 0.02 0.03 0.03 0.04 0.04 0.01 0.00 0.00 0.00 0.00 0.00 0.00 0.00 0.00 0.00 0.00 0.00 0.00 0.00 0.01 0.02 0.02 0.02 0.02 0.03 0.03 0.02 0.01 0.01 0.01 0.02 0.02 0.03 0.02 0.02 0.02 0.02 0.03 0.04 0.04 0.05 0.06 0.05 0.05
0.00 0.00 0.00 0.00 0.00 0.01 0.03 0.05 0.05 0.04 0.01 0.01 0.00 0.00 0.00 0.00 0.00 0.00 0.00 0.00 0.00 0.00 0.00 0.01 0.02 0.02 0.02 0.03 0.02 0.02 0.03 0.02 0.01 0.01 0.01 0.02 0.02 0.03 0.02 0.03 0.03 0.03 0.04 0.04 0.03 0.03 0.03 0.03 0.03
0.00 0.00 0.00 0.00 0.00 0.00 0.02 0.05 0.02 0.01 0.02 0.02 0.00 0.01 0.00 0.00 0.00 0.00 0.00 0.00 0.00 0.00 0.00 0.01 0.02 0.02 0.01 0.01 0.01 0.01 0.01 0.01 0.01 0.01 0.01 0.02 0.02 0.02 0.04 0.05 0.05 0.04 0.03 0.03 0.03 0.02 0.03 0.03 0.03
MSLP
1004.79 1005.64 1006.64 1007.64 1008.50 1009.13 1009.50 1009.65 1009.67 1009.68 1009.77 1010.00 1010.35 1010.77 1011.16 1011.43 1011.51 1011.39 1011.12 1010.79 1010.52 1010.38 1010.43 1010.66 1011.02 1011.40 1011.73 1011.93 1011.99 1011.93 1011.83 1011.76 1011.79 1011.95 1012.24 1012.60 1012.96 1013.25 1013.44 1013.52 1013.51 1013.48 1013.49 1013.56 1013.72 1013.94 1014.17 1014.37 1014.50
1005.04 1006.00 1007.07 1008.07 1008.89 1009.44 1009.71 1009.76 1009.68 1009.61 1009.64 1009.81 1010.12 1010.49 1010.85 1011.10 1011.18 1011.10 1010.89 1010.66 1010.49 1010.46 1010.60 1010.90 1011.29 1011.68 1011.98 1012.15 1012.19 1012.14 1012.06 1012.05 1012.15 1012.39 1012.74 1013.12 1013.48 1013.75 1013.90 1013.92 1013.88 1013.83 1013.83 1013.92 1014.10 1014.34 1014.58 1014.77 1014.87
1005.33 1006.39 1007.49 1008.47 1009.23 1009.69 1009.86 1009.81 1009.65 1009.52 1009.49 1009.62 1009.89 1010.22 1010.54 1010.75 1010.83 1010.75 1010.60 1010.45 1010.39 1010.47 1010.72 1011.10 1011.55 1011.96 1012.27 1012.44 1012.48 1012.44 1012.40 1012.44 1012.60 1012.89 1013.27 1013.67 1014.01 1014.24 1014.34 1014.31 1014.23 1014.16 1014.15 1014.25 1014.44 1014.68 1014.92 1015.08 1015.15
1005.59 1006.70 1007.80 1008.75 1009.43 1009.80 1009.89 1009.77 1009.57 1009.41 1009.37 1009.47 1009.71 1010.01 1010.28 1010.46 1010.50 1010.43 1010.32 1010.23 1010.26 1010.45 1010.80 1011.28 1011.79 1012.25 1012.59 1012.78 1012.84 1012.83 1012.83 1012.90 1013.10 1013.42 1013.81 1014.20 1014.52 1014.72 1014.77 1014.71 1014.60 1014.52 1014.51 1014.61 1014.80 1015.03 1015.24 1015.36 1015.38
1005.74 1006.86 1007.92 1008.81 1009.41 1009.72 1009.76 1009.62 1009.42 1009.27 1009.25 1009.38 1009.62 1009.89 1010.13 1010.27 1010.28 1010.21 1010.10 1010.07 1010.16 1010.44 1010.89 1011.44 1012.03 1012.55 1012.93 1013.15 1013.24 1013.26 1013.28 1013.38 1013.60 1013.92 1014.31 1014.69 1014.98 1015.15 1015.19 1015.12 1015.01 1014.93 1014.93 1015.03 1015.21 1015.41 1015.58 1015.66 1015.62
1005.75 1006.81 1007.80 1008.60 1009.14 1009.39 1009.42 1009.31 1009.17 1009.09 1009.15 1009.33 1009.60 1009.89 1010.12 1010.23 1010.22 1010.13 1010.04 1010.03 1010.17 1010.50 1011.01 1011.63 1012.27 1012.83 1013.25 1013.50 1013.62 1013.65 1013.69 1013.80 1014.02 1014.34 1014.71 1015.07 1015.36 1015.52 1015.56 1015.51 1015.42 1015.37 1015.39 1015.49 1015.65 1015.83 1015.95 1015.97 1015.87
1005.61 1006.56 1007.44 1008.14 1008.60 1008.84 1008.89 1008.85 1008.81 1008.86 1009.03 1009.31 1009.66 1009.99 1010.23 1010.35 1010.34 1010.24 1010.15 1010.15 1010.32 1010.67 1011.20 1011.84 1012.49 1013.07 1013.50 1013.76 1013.89 1013.94 1013.99 1014.10 1014.31 1014.62 1014.98 1015.33 1015.61 1015.78 1015.85 1015.84 1015.79 1015.77 1015.82 1015.93 1016.07 1016.21 1016.28 1016.25 1016.11
1005.35 1006.15 1006.89 1007.49 1007.89 1008.12 1008.22 1008.28 1008.37 1008.57 1008.88 1009.29 1009.74 1010.15 1010.45 1010.60 1010.61 1010.53 1010.45 1010.46 1010.62 1010.97 1011.47 1012.08 1012.71 1013.25 1013.66 1013.92 1014.04 1014.09 1014.14 1014.24 1014.44 1014.73 1015.08 1015.42 1015.71 1015.91 1016.02 1016.06 1016.06 1016.09 1016.15 1016.27 1016.40 1016.50 1016.53 1016.45 1016.27
1005.03 1005.68 1006.27 1006.76 1007.11 1007.34 1007.51 1007.67 1007.91 1008.25 1008.72 1009.26 1009.83 1010.33 1010.71 1010.93 1010.99 1010.96 1010.91 1010.92 1011.06 1011.37 1011.81 1012.35 1012.90 1013.38 1013.74 1013.96 1014.06 1014.10 1014.14 1014.23 1014.42 1014.70 1015.03 1015.38 1015.68 1015.91 1016.05 1016.13 1016.19 1016.25 1016.34 1016.45 1016.56 1016.63 1016.62 1016.51 1016.31
1004.75 1005.24 1005.70 1006.08 1006.39 1006.63 1006.85 1007.12 1007.47 1007.95 1008.54 1009.21 1009.88 1010.48 1010.96 1011.27 1011.42 1011.45 1011.44 1011.47 1011.60 1011.84 1012.21 1012.64 1013.08 1013.47 1013.75 1013.91 1013.98 1014.01 1014.04 1014.13 1014.30 1014.57 1014.89 1015.22 1015.53 1015.78 1015.95 1016.07 1016.17 1016.25 1016.35 1016.46 1016.55 1016.59 1016.55 1016.42 1016.22
1004.59 1004.95 1005.29 1005.59 1005.85 1006.10 1006.37 1006.71 1007.15 1007.71 1008.39 1009.13 1009.88 1010.57 1011.14 1011.56 1011.81 1011.94 1012.00 1012.06 1012.17 1012.36 1012.63 1012.95 1013.27 1013.54 1013.73 1013.84 1013.88 1013.88 1013.91 1013.99 1014.16 1014.41 1014.71 1015.03 1015.32 1015.57 1015.76 1015.90 1016.01 1016.11 1016.21 1016.31 1016.38 1016.40 1016.35 1016.22 1016.04
1004.61 1004.87 1005.13 1005.36 1005.60 1005.85 1006.14 1006.51 1006.98 1007.58 1008.28 1009.05 1009.84 1010.59 1011.24 1011.75 1012.12 1012.36 1012.51 1012.62 1012.73 1012.87 1013.05 1013.26 1013.46 1013.63 1013.74 1013.79 1013.80 1013.80 1013.83 1013.91 1014.06 1014.29 1014.56 1014.85 1015.12 1015.35 1015.54 1015.68 1015.79 1015.89 1015.99 1016.07 1016.13 1016.14 1016.09 1015.98 1015.82
1004.87 1005.07 1005.26 1005.46 1005.68 1005.92 1006.22 1006.58 1007.04 1007.60 1008.26 1009.00 1009.78 1010.54 1011.24 1011.85 1012.33 1012.68 1012.93 1013.10 1013.23 1013.34 1013.46 1013.57 1013.67 1013.75 1013.80 1013.82 1013.82 1013.82 1013.85 1013.93 1014.07 1014.26 1014.49 1014.73 1014.96 1015.16 1015.32 1015.46 1015.56 1015.66 1015.75 1015.83 1015.88 1015.90 1015.86 1015.78 1015.66
1005.36 1005.52 1005.68 1005.87 1006.08 1006.33 1006.61 1006.94 1007.33 1007.81 1008.37 1009.02 1009.72 1010.46 1011.19 1011.86 1012.43 1012.89 1013.24 1013.48 1013.64 1013.75 1013.81 1013.86 1013.89 1013.91 1013.93 1013.93 1013.94 1013.95 1014.00 1014.08 1014.19 1014.34 1014.52 1014.70 1014.87 1015.03 1015.16 1015.27 1015.37 1015.47 1015.56 1015.64 1015.71 1015.74 1015.74 1015.69 1015.62
1006.01 1006.16 1006.33 1006.53 1006.76 1007.01 1007.27 1007.54 1007.84 1008.19 1008.62 1009.13 1009.73 1010.40 1011.11 1011.82 1012.47 1013.02 1013.46 1013.77 1013.96 1014.07 1014.11 1014.11 1014.10 1014.09 1014.09 1014.10 1014.13 1014.18 1014.24 1014.31 1014.41 1014.51 1014.62 1014.74 1014.85 1014.95 1015.05 1015.15 1015.25 1015.34 1015.45 1015.55 1015.64 1015.71 1015.74 1015.75 1015.72
1006.74 1006.89 1007.09 1007.33 1007.60 1007.87 1008.12 1008.33 1008.53 1008.74 1009.00 1009.35 1009.82 1010.40 1011.06 1011.78 1012.47 1013.10 1013.60 1013.97 1014.20 1014.30 1014.33 1014.30 1014.27 1014.24 1014.25 1014.29 1014.36 1014.43 1014.52 1014.59 1014.65 1014.71 1014.76 1014.80 1014.85 1014.91 1014.98 1015.06 1015.16 1015.28 1015.40 1015.53 1015.65 1015.76 1015.85 1015.91 1015.94
1007.44 1007.61 1007.86 1008.17 1008.51 1008.82 1009.07 1009.23 1009.32 1009.39 1009.48 1009.66 1009.98 1010.46 1011.06 1011.76 1012.48 1013.15 1013.70 1014.11 1014.35 1014.46 1014.46 1014.42 1014.37 1014.34 1014.37 1014.45 1014.55 1014.66 1014.77 1014.84 1014.87 1014.88 1014.86 1014.85 1014.84 1014.86 1014.90 1014.98 1015.10 1015.23 1015.38 1015.54 1015.70 1015.85 1015.98 1016.10 1016.18
1008.01 1008.22 1008.55 1008.96 1009.39 1009.76 1010.03 1010.16 1010.16 1010.08 1010.02 1010.04 1010.21 1010.57 1011.10 1011.77 1012.49 1013.18 1013.76 1014.19 1014.44 1014.53 1014.52 1014.45 1014.39 1014.37 1014.42 1014.52 1014.67 1014.82 1014.94 1015.01 1015.02 1014.98 1014.91 1014.83 1014.78 1014.76 1014.79 1014.87 1015.00 1015.16 1015.34 1015.52 1015.71 1015.90 1016.07 1016.24 1016.38
1008.38 1008.66 1009.10 1009.63 1010.17 1010.63 1010.93 1011.03 1010.95 1010.75 1010.54 1010.40 1010.43 1010.68 1011.15 1011.78 1012.49 1013.19 1013.78 1014.21 1014.45 1014.53 1014.49 1014.40 1014.33 1014.31 1014.38 1014.51 1014.70 1014.87 1015.01 1015.08 1015.07 1014.99 1014.87 1014.74 1014.65 1014.61 1014.63 1014.71 1014.85 1015.03 1015.22 1015.43 1015.63 1015.84 1016.05 1016.25 1016.44
1008.55 1008.92 1009.49 1010.17 1010.83 1011.38 1011.72 1011.80 1011.65 1011.33 1010.97 1010.69 1010.59 1010.74 1011.14 1011.73 1012.44 1013.14 1013.74 1014.16 1014.40 1014.46 1014.39 1014.28 1014.20 1014.18 1014.27 1014.43 1014.64 1014.84 1014.99 1015.06 1015.03 1014.91 1014.76 1014.59 1014.47 1014.40 1014.41 1014.50 1014.65 1014.83 1015.03 1015.24 1015.44 1015.65 1015.87 1016.10 1016.33
1008.54 1009.04 1009.76 1010.58 1011.38 1012.01 1012.38 1012.43 1012.20 1011.76 1011.27 1010.85 1010.63 1010.69 1011.02 1011.58 1012.28 1012.98 1013.59 1014.03 1014.26 1014.31 1014.23 1014.11 1014.02 1014.01 1014.11 1014.29 1014.53 1014.75 1014.91 1014.97 1014.92 1014.79 1014.60 1014.40 1014.25 1014.17 1014.17 1014.25 1014.40 1014.58 1014.77 1014.96 1015.16 1015.35 1015.56 1015.79 1016.04
1008.46 1009.09 1009.96 1010.93 1011.84 1012.53 1012.91 1012.92 1012.59 1012.03 1011.40 1010.85 1010.52 1010.49 1010.76 1011.29 1011.98 1012.70 1013.32 1013.77 1014.02 1014.08 1014.01 1013.89 1013.81 1013.82 1013.93 1014.14 1014.39 1014.63 1014.80 1014.86 1014.80 1014.64 1014.42 1014.20 1014.02 1013.92 1013.91 1013.99 1014.13 1014.30 1014.48 1014.65 1014.81 1014.98 1015.16 1015.38 1015.64
1008.38 1009.16 1010.17 1011.26 1012.25 1012.98 1013.34 1013.28 1012.85 1012.16 1011.39 1010.71 1010.27 1010.15 1010.36 1010.86 1011.55 1012.27 1012.92 1013.40 1013.67 1013.76 1013.72 1013.62 1013.57 1013.60 1013.74 1013.97 1014.24 1014.49 1014.67 1014.73 1014.66 1014.48 1014.24 1014.00 1013.80 1013.69 1013.67 1013.74 1013.86 1014.02 1014.18 1014.33 1014.46 1014.59 1014.74 1014.94 1015.19
1008.41 1009.31 1010.43 1011.61 1012.64 1013.37 1013.68 1013.54 1013.00 1012.18 1011.28 1010.48 1009.93 1009.72 1009.87 1010.34 1011.00 1011.73 1012.40 1012.91 1013.22 1013.34 1013.34 1013.29 1013.27 1013.34 1013.51 1013.77 1014.07 1014.33 1014.52 1014.58 1014.50 1014.31 1014.06 1013.80 1013.59 1013.46 1013.43 1013.49 1013.61 1013.76 1013.91 1014.03 1014.14 1014.24 1014.36 1014.52 1014.74
1008.59 1009.57 1010.76 1011.98 1013.01 1013.71 1013.95 1013.72 1013.07 1012.14 1011.13 1010.22 1009.57 1009.28 1009.37 1009.78 1010.41 1011.13 1011.79 1012.32 1012.66 1012.83 1012.88 1012.88 1012.91 1013.02 1013.23 1013.52 1013.84 1014.13 1014.32 1014.38 1014.30 1014.11 1013.85 1013.58 1013.36 1013.22 1013.19 1013.25 1013.37 1013.52 1013.66 1013.78 1013.87 1013.95 1014.04 1014.17 1014.35
1008.91 1009.93 1011.14 1012.33 1013.33 1013.96 1014.13 1013.82 1013.09 1012.09 1011.00 1010.02 1009.29 1008.93 1008.94 1009.28 1009.86 1010.52 1011.16 1011.67 1012.03 1012.22 1012.31 1012.37 1012.45 1012.61 1012.86 1013.19 1013.54 1013.84 1014.05 1014.12 1014.05 1013.86 1013.60 1013.33 1013.11 1012.98 1012.95 1013.01 1013.14 1013.30 1013.45 1013.57 1013.66 1013.72 1013.79 1013.88 1014.03
1009.34 1010.34 1011.49 1012.62 1013.54 1014.10 1014.20 1013.84 1013.08 1012.05 1010.94 1009.93 1009.17 1008.74 1008.68 1008.94 1009.42 1010.00 1010.56 1011.03 1011.36 1011.56 1011.68 1011.77 1011.89 1012.10 1012.39 1012.75 1013.13 1013.46 1013.69 1013.78 1013.73 1013.55 1013.31 1013.05 1012.84 1012.71 1012.69 1012.76 1012.91 1013.08 1013.24 1013.38 1013.47 1013.54 1013.59 1013.66 1013.77
1009.81 1010.72 1011.76 1012.78 1013.59 1014.07 1014.14 1013.77 1013.03 1012.04 1010.98 1010.00 1009.24 1008.78 1008.65 1008.80 1009.16 1009.62 1010.08 1010.46 1010.73 1010.90 1011.01 1011.11 1011.27 1011.51 1011.84 1012.23 1012.63 1012.99 1013.25 1013.37 1013.34 1013.20 1012.99 1012.76 1012.57 1012.45 1012.44 1012.52 1012.68 1012.86 1013.04 1013.20 1013.30 1013.37 1013.42 1013.47 1013.55
1010.24 1011.01 1011.89 1012.75 1013.46 1013.87 1013.92 1013.60 1012.95 1012.08 1011.13 1010.24 1009.53 1009.07 1008.88 1008.93 1009.15 1009.46 1009.77 1010.03 1010.20 1010.31 1010.38 1010.48 1010.64 1010.89 1011.24 1011.65 1012.08 1012.46 1012.75 1012.91 1012.93 1012.83 1012.66 1012.47 1012.31 1012.22 1012.22 1012.31 1012.47 1012.66 1012.85 1013.01 1013.13 1013.21 1013.25 1013.29 1013.35
1010.61 1011.18 1011.87 1012.56 1013.14 1013.51 1013.58 1013.35 1012.85 1012.15 1011.38 1010.63 1010.01 1009.58 1009.35 1009.30 1009.39 1009.53 1009.67 1009.78 1009.83 1009.85 1009.86 1009.92 1010.07 1010.32 1010.67 1011.09 1011.53 1011.93 1012.25 1012.45 1012.52 1012.48 1012.36 1012.22 1012.10 1012.03 1012.05 1012.14 1012.30 1012.49 1012.67 1012.84 1012.96 1013.04 1013.09 1013.12 1013.16
Thickness
5855 5854 5850 5840 5819 5802 5789 5795 5802 5800 5800 5808 5809 5801 5789 5781 5769 5754 5779 5789 5786 5780 5773 5769 5767 5766 5765 5764 5764 5764 5765 5765 5765 5765 5763 5763 5762 5761 5759 5759 5758 5758 5757 5756 5755 5755 5754 5754 5753
5863 5861 5847 5833 5809 5784 5783 5799 5798 5801 5808 5812 5809 5801 5790 5782 5786 5781 5784 5788 5787 5782 5774 5769 5766 5765 5764 5763 5763 5763 5763 5763 5763 5762 5761 5761 5760 5759 5758 5758 5757 5756 5756 5754 5754 5753 5753 5753 5752
5863 5861 5841 5833 5809 5790 5786 5801 5803 5810 5817 5811 5801 5798 5789 5781 5786 5785 5788 5791 5786 5780 5773 5767 5765 5764 5763 5763 5762 5762 5762 5761 5761 5760 5759 5759 5758 5758 5757 5756 5755 5755 5754 5753 5752 5752 5752 5752 5751
5861 5854 5849 5829 5804 5808 5808 5809 5812 5809 5811 5812 5803 5788 5787 5794 5792 5791 5794 5792 5786 5781 5774 5767 5765 5764 5763 5762 5762 5761 5761 5760 5759 5758 5758 5757 5756 5756 5755 5755 5754 5754 5753 5752 5752 5751 5751 5751 5750
5862 5851 5834 5815 5809 5817 5821 5822 5819 5808 5805 5805 5797 5780 5778 5793 5798 5796 5794 5792 5787 5782 5775 5768 5765 5763 5762 5761 5761 5760 5759 5758 5757 5757 5756 5756 5755 5754 5754 5753 5753 5752 5752 5752 5751 5750 5750 5750 5750
5856 5855 5824 5805 5810 5820 5824 5827 5820 5809 5804 5803 5795 5781 5778 5794 5795 5795 5795 5793 5790 5784 5777 5769 5765 5764 5762 5761 5760 5759 5758 5757 5757 5756 5755 5754 5754 5753 5752 5752 5752 5751 5751 5751 5750 5750 5749 5749 5749
5858 5847 5827 5816 5812 5814 5822 5830 5819 5810 5805 5805 5804 5785 5782 5792 5797 5798 5796 5793 5790 5787 5780 5773 5768 5764 5762 5761 5759 5759 5758 5757 5756 5755 5755 5754 5754 5753 5752 5751 5751 5750 5750 5750 5750 5749 5749 5749 5750
5883 5858 5835 5825 5815 5811 5826 5830 5826 5816 5808 5818 5813 5789 5781 5792 5800 5799 5795 5792 5790 5787 5783 5778 5773 5768 5765 5762 5760 5758 5757 5756 5756 5755 5755 5754 5754 5753 5752 5751 5750 5750 5750 5750 5750 5750 5749 5749 5750
5890 5851 5829 5827 5821 5819 5831 5825 5825 5828 5817 5816 5815 5805 5799 5802 5801 5794 5789 5787 5785 5784 5783 5781 5777 5772 5769 5766 5762 5759 5758 5757 5756 5756 5755 5755 5755 5754 5753 5752 5751 5751 5751 5750 5750 5750 5750 5750 5750
5876 5841 5837 5846 5843 5834 5833 5828 5825 5819 5808 5803 5802 5804 5806 5802 5797 5789 5784 5781 5779 5779 5780 5780 5778 5774 5772 5769 5764 5762 5761 5758 5758 5759 5758 5757 5756 5755 5755 5753 5752 5752 5752 5751 5751 5750 5750 5750 5751
5872 5851 5854 5856 5855 5847 5837 5834 5834 5818 5802 5802 5798 5799 5802 5799 5794 5789 5786 5784 5780 5781 5780 5780 5777 5774 5772 5769 5767 5764 5763 5761 5760 5760 5759 5758 5758 5757 5755 5754 5753 5753 5752 5752 5752 5751 5752 5752 5753
5870 5865 5865 5860 5861 5852 5843 5839 5832 5823 5816 5819 5814 5810 5804 5798 5793 5790 5786 5785 5783 5781 5780 5780 5777 5774 5771 5769 5767 5766 5765 5763 5762 5760 5760 5759 5759 5759 5757 5756 5755 5755 5755 5755 5754 5754 5754 5754 5755
5869 5865 5868 5867 5863 5856 5850 5840 5831 5826 5828 5826 5819 5812 5806 5800 5796 5795 5793 5788 5785 5781 5780 5779 5777 5773 5771 5769 5767 5767 5766 5765 5763 5761 5760 5760 5759 5759 5758 5757 5757 5757 5757 5756 5756 5756 5756 5756 5756
5875 5871 5867 5867 5862 5857 5843 5838 5832 5826 5831 5823 5817 5810 5808 5803 5799 5795 5791 5787 5785 5782 5781 5780 5778 5774 5771 5769 5767 5767 5767 5764 5763 5762 5761 5760 5760 5759 5758 5757 5757 5758 5758 5757 5757 5757 5756 5755 5755
5882 5861 5855 5862 5863 5857 5847 5826 5828 5834 5832 5822 5817 5813 5810 5807 5803 5797 5793 5790 5788 5785 5784 5781 5780 5776 5773 5770 5768 5768 5768 5766 5764 5762 5761 5760 5759 5759 5758 5758 5757 5757 5758 5758 5757 5757 5756 5755 5754
5866 5845 5829 5851 5861 5859 5839 5810 5832 5842 5833 5822 5820 5817 5812 5808 5806 5803 5799 5794 5792 5788 5785 5783 5783 5779 5775 5772 5770 5769 5768 5767 5765 5764 5762 5761 5760 5759 5758 5758 5757 5757 5758 5757 5756 5755 5754 5753 5753
5843 5831 5829 5841 5862 5861 5842 5821 5837 5846 5836 5825 5824 5821 5816 5811 5809 5807 5804 5799 5795 5791 5787 5784 5783 5780 5777 5775 5772 5770 5769 5768 5767 5765 5764 5762 5761 5759 5759 5758 5758 5757 5758 5757 5756 5755 5753 5751 5751
5832 5839 5840 5842 5861 5860 5844 5833 5843 5849 5843 5832 5829 5826 5820 5814 5811 5811 5808 5804 5799 5794 5790 5787 5784 5781 5779 5777 5774 5772 5770 5769 5768 5766 5765 5763 5762 5761 5760 5759 5758 5758 5757 5756 5755 5753 5753 5751 5750
5855 5850 5847 5854 5872 5860 5846 5839 5842 5851 5847 5840 5835 5830 5825 5820 5820 5817 5812 5808 5802 5797 5792 5788 5784 5782 5780 5776 5773 5770 5768 5769 5768 5768 5766 5764 5763 5762 5760 5760 5758 5758 5756 5755 5755 5753 5751 5750 5751
5859 5851 5848 5857 5872 5861 5845 5839 5847 5850 5850 5848 5841 5834 5830 5825 5821 5818 5814 5810 5804 5799 5794 5790 5787 5785 5782 5779 5777 5775 5773 5772 5771 5770 5767 5765 5763 5762 5762 5760 5759 5758 5756 5755 5754 5752 5750 5749 5751
5857 5855 5851 5852 5864 5863 5847 5827 5834 5848 5855 5855 5852 5847 5841 5832 5824 5819 5816 5813 5808 5802 5798 5795 5791 5788 5785 5784 5781 5779 5775 5772 5770 5768 5767 5766 5765 5763 5763 5762 5760 5759 5757 5754 5753 5752 5749 5746 5749
5847 5871 5867 5861 5849 5838 5840 5804 5819 5839 5845 5848 5850 5850 5845 5840 5833 5826 5821 5816 5812 5808 5804 5799 5795 5791 5788 5786 5782 5778 5772 5769 5769 5769 5769 5768 5767 5765 5764 5762 5761 5759 5757 5755 5754 5753 5751 5749 5745
5859 5875 5870 5861 5850 5835 5836 5816 5811 5836 5834 5842 5849 5849 5850 5846 5839 5832 5827 5822 5818 5815 5809 5803 5798 5794 5791 5788 5785 5780 5776 5774 5774 5773 5770 5769 5767 5766 5764 5762 5760 5758 5757 5755 5754 5752 5751 5749 5746
5875 5869 5862 5858 5845 5816 5835 5823 5809 5827 5836 5847 5850 5853 5854 5851 5845 5838 5833 5828 5823 5819 5814 5807 5800 5795 5793 5790 5787 5782 5778 5776 5774 5772 5769 5768 5767 5766 5764 5763 5761 5758 5756 5755 5754 5752 5750 5748 5747
5865 5844 5820 5809 5803 5801 5831 5826 5823 5844 5860 5861 5857 5857 5858 5855 5847 5838 5832 5829 5825 5821 5816 5811 5803 5797 5795 5792 5789 5786 5782 5779 5775 5773 5771 5769 5767 5765 5764 5763 5760 5758 5756 5755 5753 5751 5749 5748 5746
5855 5846 5815 5788 5781 5794 5810 5809 5833 5864 5869 5872 5870 5866 5862 5856 5851 5844 5839 5834 5829 5824 5819 5813 5806 5800 5797 5794 5791 5788 5785 5781 5778 5776 5774 5771 5769 5767 5765 5763 5760 5758 5756 5754 5752 5750 5748 5747 5745
5849 5846 5854 5828 5812 5795 5793 5813 5837 5860 5860 5865 5866 5864 5859 5856 5852 5847 5842 5837 5833 5828 5823 5818 5810 5804 5800 5797 5793 5789 5786 5783 5780 5779 5776 5773 5771 5769 5766 5763 5760 5758 5755 5753 5751 5748 5746 5745 5743
5861 5856 5844 5826 5798 5786 5797 5806 5811 5830 5839 5856 5860 5858 5857 5856 5852 5849 5846 5841 5836 5832 5827 5821 5815 5808 5804 5800 5797 5793 5788 5785 5782 5779 5776 5773 5771 5768 5765 5762 5759 5757 5754 5752 5749 5746 5744 5742 5740
5847 5844 5841 5833 5826 5802 5786 5793 5830 5832 5843 5848 5857 5859 5857 5855 5854 5850 5848 5845 5840 5835 5829 5821 5816 5810 5805 5802 5798 5795 5791 5787 5784 5780 5777 5773 5770 5767 5764 5760 5757 5754 5752 5749 5747 5744 5741 5738 5736
5853 5848 5842 5817 5814 5819 5804 5797 5845 5845 5856 5857 5858 5858 5857 5857 5856 5853 5850 5845 5840 5834 5829 5823 5818 5812 5807 5804 5799 5795 5791 5788 5783 5780 5776 5773 5770 5766 5763 5759 5756 5753 5750 5747 5744 5741 5738 5735 5732